contact:dominique.lefevre@mio.osupytheas.fr, maurice.libes@osupytheas.fr, didier.mallarino@osupytheas.fr
Project:EMSO http://www.emso-fr.org/EMSO-France
Depth: 2436.0 m
Title:EMSO Ligure Ouest : Data MII capteur MICROCAT
DateTime_Computer,Latitude,Longitude,Temperature,Conductivity,Pressure,DateTime_Instrument
DateTime_Computer,Latitude,Longitude,degC,S m-1,dbar,DateTime_Instrument
2021-12-17T00:02:25Z,42.805,6.029,13.3005,4.60044,2470.273,2021-12-17T02:03:54Z
2021-12-17T00:05:28Z,42.805,6.029,13.3006,4.60044,2470.264,2021-12-17T02:06:57Z
2021-12-17T00:08:32Z,42.805,6.029,13.2999,4.60048,2470.287,2021-12-17T02:10:00Z
2021-12-17T00:11:35Z,42.805,6.029,13.2997,4.60039,2470.236,2021-12-17T02:13:03Z
2021-12-17T00:14:38Z,42.805,6.029,13.2999,4.60039,2470.287,2021-12-17T02:16:06Z
2021-12-17T00:17:41Z,42.805,6.029,13.3004,4.60043,2470.287,2021-12-17T02:19:09Z
2021-12-17T00:20:44Z,42.805,6.029,13.3005,4.60049,2470.25,2021-12-17T02:22:13Z
2021-12-17T00:23:47Z,42.805,6.029,13.3004,4.60044,2470.287,2021-12-17T02:25:16Z
2021-12-17T00:26:50Z,42.805,6.029,13.3022,4.60041,2470.287,2021-12-17T02:28:19Z
2021-12-17T00:29:53Z,42.805,6.029,13.3011,4.60054,2470.273,2021-12-17T02:31:22Z
2021-12-17T00:32:57Z,42.805,6.029,13.3021,4.60060,2470.25,2021-12-17T02:34:25Z
2021-12-17T00:36:00Z,42.805,6.029,13.3015,4.60051,2470.25,2021-12-17T02:37:28Z
2021-12-17T00:39:03Z,42.805,6.029,13.3015,4.60049,2470.287,2021-12-17T02:40:31Z
2021-12-17T00:42:06Z,42.805,6.029,13.3011,4.60046,2470.264,2021-12-17T02:43:34Z
2021-12-17T00:45:09Z,42.805,6.029,13.3002,4.60047,2470.25,2021-12-17T02:46:38Z
2021-12-17T00:48:12Z,42.805,6.029,13.3016,4.60056,2470.273,2021-12-17T02:49:41Z
2021-12-17T00:51:15Z,42.805,6.029,13.3034,4.60048,2470.287,2021-12-17T02:52:44Z
2021-12-17T00:54:18Z,42.805,6.029,13.3009,4.60058,2470.273,2021-12-17T02:55:47Z
2021-12-17T00:57:22Z,42.805,6.029,13.3010,4.60041,2470.25,2021-12-17T02:58:50Z
2021-12-17T01:00:25Z,42.805,6.029,13.3005,4.60045,2470.25,2021-12-17T03:01:53Z
2021-12-17T01:03:28Z,42.805,6.029,13.3002,4.60049,2470.264,2021-12-17T03:04:56Z
2021-12-17T01:06:31Z,42.805,6.029,13.3016,4.60057,2470.31,2021-12-17T03:07:59Z
2021-12-17T01:09:34Z,42.805,6.029,13.3004,4.60052,2470.25,2021-12-17T03:11:03Z
2021-12-17T01:12:37Z,42.805,6.029,13.3026,4.60049,2470.287,2021-12-17T03:14:06Z
2021-12-17T01:15:40Z,42.805,6.029,13.3010,4.60053,2470.273,2021-12-17T03:17:09Z
2021-12-17T01:18:43Z,42.805,6.029,13.3009,4.60042,2470.287,2021-12-17T03:20:12Z
2021-12-17T01:21:47Z,42.805,6.029,13.3004,4.60046,2470.287,2021-12-17T03:23:15Z
2021-12-17T01:24:50Z,42.805,6.029,13.3005,4.60041,2470.273,2021-12-17T03:26:18Z
2021-12-17T01:27:53Z,42.805,6.029,13.3027,4.60052,2470.273,2021-12-17T03:29:21Z
2021-12-17T01:30:56Z,42.805,6.029,13.3004,4.60045,2470.287,2021-12-17T03:32:24Z
2021-12-17T01:33:59Z,42.805,6.029,13.3023,4.60049,2470.287,2021-12-17T03:35:28Z
2021-12-17T01:37:02Z,42.805,6.029,13.3041,4.60050,2470.297,2021-12-17T03:38:31Z
2021-12-17T01:40:05Z,42.805,6.029,13.3018,4.60052,2470.287,2021-12-17T03:41:34Z
2021-12-17T01:43:08Z,42.805,6.029,13.3009,4.60042,2470.287,2021-12-17T03:44:37Z
2021-12-17T01:46:11Z,42.805,6.029,13.3031,4.60049,2470.31,2021-12-17T03:47:40Z
2021-12-17T01:49:15Z,42.805,6.029,13.3015,4.60044,2470.287,2021-12-17T03:50:43Z
2021-12-17T01:52:18Z,42.805,6.029,13.3012,4.60047,2470.273,2021-12-17T03:53:46Z
2021-12-17T01:55:21Z,42.805,6.029,13.3012,4.60052,2470.297,2021-12-17T03:56:49Z
2021-12-17T01:58:24Z,42.805,6.029,13.3021,4.60057,2470.26,2021-12-17T03:59:53Z
2021-12-17T02:01:27Z,42.805,6.029,13.3007,4.60039,2470.334,2021-12-17T04:02:56Z
2021-12-17T02:04:30Z,42.805,6.029,13.3019,4.60052,2470.31,2021-12-17T04:05:59Z
2021-12-17T02:07:33Z,42.805,6.029,13.3053,4.60049,2470.273,2021-12-17T04:09:02Z
2021-12-17T02:10:36Z,42.805,6.029,13.3008,4.60049,2470.273,2021-12-17T04:12:05Z
2021-12-17T02:13:40Z,42.805,6.029,13.3015,4.60044,2470.287,2021-12-17T04:15:08Z
2021-12-17T02:16:43Z,42.805,6.029,13.3012,4.60037,2470.297,2021-12-17T04:18:11Z
2021-12-17T02:19:46Z,42.805,6.029,13.3024,4.60052,2470.297,2021-12-17T04:21:14Z
2021-12-17T02:22:49Z,42.805,6.029,13.3014,4.60048,2470.297,2021-12-17T04:24:18Z
2021-12-17T02:25:52Z,42.805,6.029,13.3015,4.60047,2470.297,2021-12-17T04:27:21Z
2021-12-17T02:28:55Z,42.805,6.029,13.3014,4.60067,2470.297,2021-12-17T04:30:24Z
2021-12-17T02:31:58Z,42.805,6.029,13.3015,4.60049,2470.334,2021-12-17T04:33:27Z
2021-12-17T02:35:01Z,42.805,6.029,13.3011,4.60049,2470.334,2021-12-17T04:36:30Z
2021-12-17T02:38:05Z,42.805,6.029,13.3018,4.60057,2470.297,2021-12-17T04:39:33Z
2021-12-17T02:41:08Z,42.805,6.029,13.3011,4.60049,2470.32,2021-12-17T04:42:36Z
2021-12-17T02:44:11Z,42.805,6.029,13.3015,4.60036,2470.31,2021-12-17T04:45:39Z
2021-12-17T02:47:14Z,42.805,6.029,13.3019,4.60047,2470.334,2021-12-17T04:48:43Z
2021-12-17T02:50:17Z,42.805,6.029,13.3009,4.60072,2470.32,2021-12-17T04:51:46Z
2021-12-17T02:53:20Z,42.805,6.029,13.3010,4.60042,2470.297,2021-12-17T04:54:49Z
2021-12-17T02:56:23Z,42.805,6.029,13.3029,4.60053,2470.32,2021-12-17T04:57:52Z
2021-12-17T02:59:26Z,42.805,6.029,13.3011,4.60060,2470.334,2021-12-17T05:00:55Z
2021-12-17T03:02:30Z,42.805,6.029,13.3011,4.60048,2470.297,2021-12-17T05:03:58Z
2021-12-17T03:05:33Z,42.805,6.029,13.3011,4.60049,2470.334,2021-12-17T05:07:01Z
2021-12-17T03:08:36Z,42.805,6.029,13.3009,4.60050,2470.32,2021-12-17T05:10:04Z
2021-12-17T03:11:39Z,42.805,6.029,13.3001,4.60046,2470.357,2021-12-17T05:13:08Z
2021-12-17T03:14:42Z,42.805,6.029,13.3018,4.60043,2470.32,2021-12-17T05:16:11Z
2021-12-17T03:17:45Z,42.805,6.029,13.3019,4.60039,2470.343,2021-12-17T05:19:14Z
2021-12-17T03:20:48Z,42.805,6.029,13.3013,4.60056,2470.343,2021-12-17T05:22:17Z
2021-12-17T03:23:51Z,42.805,6.029,13.3009,4.60042,2470.32,2021-12-17T05:25:20Z
2021-12-17T03:26:55Z,42.805,6.029,13.3014,4.60046,2470.357,2021-12-17T05:28:23Z
2021-12-17T03:29:58Z,42.805,6.029,13.3001,4.60055,2470.357,2021-12-17T05:31:26Z
2021-12-17T03:33:01Z,42.805,6.029,13.3014,4.60046,2470.366,2021-12-17T05:34:29Z
2021-12-17T03:36:04Z,42.805,6.029,13.3015,4.60046,2470.366,2021-12-17T05:37:33Z
2021-12-17T03:39:07Z,42.805,6.029,13.3004,4.60044,2470.38,2021-12-17T05:40:36Z
2021-12-17T03:42:10Z,42.805,6.029,13.3012,4.60039,2470.343,2021-12-17T05:43:39Z
2021-12-17T03:45:13Z,42.805,6.029,13.3006,4.60046,2470.353,2021-12-17T05:46:42Z
2021-12-17T03:48:16Z,42.805,6.029,13.3011,4.60040,2470.343,2021-12-17T05:49:45Z
2021-12-17T03:51:20Z,42.805,6.029,13.3010,4.60037,2470.357,2021-12-17T05:52:48Z
2021-12-17T03:54:23Z,42.805,6.029,13.3018,4.60053,2470.366,2021-12-17T05:55:51Z
2021-12-17T03:57:26Z,42.805,6.029,13.3010,4.60052,2470.38,2021-12-17T05:58:54Z
2021-12-17T04:00:29Z,42.805,6.029,13.3007,4.60052,2470.343,2021-12-17T06:01:58Z
2021-12-17T04:03:32Z,42.805,6.029,13.2999,4.60054,2470.366,2021-12-17T06:05:01Z
2021-12-17T04:06:35Z,42.805,6.029,13.3023,4.60051,2470.404,2021-12-17T06:08:04Z
2021-12-17T04:09:38Z,42.805,6.029,13.3005,4.60049,2470.404,2021-12-17T06:11:07Z
2021-12-17T04:12:41Z,42.805,6.029,13.3003,4.60051,2470.39,2021-12-17T06:14:10Z
2021-12-17T04:15:44Z,42.805,6.029,13.2998,4.60039,2470.404,2021-12-17T06:17:13Z
2021-12-17T04:18:48Z,42.805,6.029,13.3003,4.60042,2470.366,2021-12-17T06:20:16Z
2021-12-17T04:21:51Z,42.805,6.029,13.3006,4.60038,2470.39,2021-12-17T06:23:19Z
2021-12-17T04:24:54Z,42.805,6.029,13.3017,4.60039,2470.39,2021-12-17T06:26:22Z
2021-12-17T04:27:57Z,42.805,6.029,13.3003,4.60042,2470.404,2021-12-17T06:29:26Z
2021-12-17T04:31:00Z,42.805,6.029,13.3006,4.60050,2470.413,2021-12-17T06:32:29Z
2021-12-17T04:34:03Z,42.805,6.029,13.3000,4.60035,2470.437,2021-12-17T06:35:32Z
2021-12-17T04:37:06Z,42.805,6.029,13.3019,4.60043,2470.413,2021-12-17T06:38:35Z
2021-12-17T04:40:09Z,42.805,6.029,13.3003,4.60042,2470.413,2021-12-17T06:41:38Z
2021-12-17T04:43:13Z,42.805,6.029,13.3009,4.60046,2470.39,2021-12-17T06:44:41Z
2021-12-17T04:46:16Z,42.805,6.029,13.3011,4.60049,2470.45,2021-12-17T06:47:44Z
2021-12-17T04:49:19Z,42.805,6.029,13.2998,4.60040,2470.413,2021-12-17T06:50:47Z
2021-12-17T04:52:22Z,42.805,6.029,13.3005,4.60051,2470.45,2021-12-17T06:53:51Z
2021-12-17T04:55:25Z,42.805,6.029,13.3003,4.60048,2470.413,2021-12-17T06:56:54Z
2021-12-17T04:58:28Z,42.805,6.029,13.3007,4.60040,2470.45,2021-12-17T06:59:57Z
2021-12-17T05:01:31Z,42.805,6.029,13.3000,4.60059,2470.413,2021-12-17T07:03:00Z
2021-12-17T05:04:34Z,42.805,6.029,13.3001,4.60033,2470.413,2021-12-17T07:06:03Z
2021-12-17T05:07:38Z,42.805,6.029,13.3007,4.60049,2470.437,2021-12-17T07:09:06Z
2021-12-17T05:10:41Z,42.805,6.029,13.3014,4.60042,2470.437,2021-12-17T07:12:09Z
2021-12-17T05:13:44Z,42.805,6.029,13.3015,4.60043,2470.45,2021-12-17T07:15:12Z
2021-12-17T05:16:47Z,42.805,6.029,13.3002,4.60042,2470.413,2021-12-17T07:18:16Z
2021-12-17T05:19:50Z,42.805,6.029,13.2998,4.60048,2470.437,2021-12-17T07:21:19Z
2021-12-17T05:22:53Z,42.805,6.029,13.2998,4.60041,2470.427,2021-12-17T07:24:22Z
2021-12-17T05:25:56Z,42.805,6.029,13.3000,4.60034,2470.437,2021-12-17T07:27:25Z
2021-12-17T05:28:59Z,42.805,6.029,13.3019,4.60040,2470.474,2021-12-17T07:30:28Z
2021-12-17T05:32:03Z,42.805,6.029,13.3005,4.60040,2470.45,2021-12-17T07:33:31Z
2021-12-17T05:35:06Z,42.805,6.029,13.3003,4.60036,2470.46,2021-12-17T07:36:34Z
2021-12-17T05:38:09Z,42.805,6.029,13.2996,4.60042,2470.46,2021-12-17T07:39:37Z
2021-12-17T05:41:12Z,42.805,6.029,13.3008,4.60054,2470.46,2021-12-17T07:42:41Z
2021-12-17T05:44:15Z,42.805,6.029,13.3003,4.60029,2470.46,2021-12-17T07:45:44Z
2021-12-17T05:47:18Z,42.805,6.029,13.3030,4.60039,2470.437,2021-12-17T07:48:47Z
2021-12-17T05:50:21Z,42.805,6.029,13.3021,4.60045,2470.474,2021-12-17T07:51:50Z
2021-12-17T05:53:24Z,42.805,6.029,13.2998,4.60038,2470.474,2021-12-17T07:54:53Z
2021-12-17T05:56:28Z,42.805,6.029,13.3001,4.60029,2470.437,2021-12-17T07:57:56Z
2021-12-17T05:59:31Z,42.805,6.029,13.3011,4.60042,2470.437,2021-12-17T08:00:59Z
2021-12-17T06:02:34Z,42.805,6.029,13.2996,4.60047,2470.474,2021-12-17T08:04:02Z
2021-12-17T06:05:37Z,42.805,6.029,13.2998,4.60034,2470.474,2021-12-17T08:07:06Z
2021-12-17T06:08:40Z,42.805,6.029,13.3000,4.60049,2470.437,2021-12-17T08:10:09Z
2021-12-17T06:11:43Z,42.805,6.029,13.3012,4.60033,2470.474,2021-12-17T08:13:12Z
2021-12-17T06:14:46Z,42.805,6.029,13.3006,4.60042,2470.474,2021-12-17T08:16:15Z
2021-12-17T06:17:49Z,42.805,6.029,13.2998,4.60041,2470.46,2021-12-17T08:19:18Z
2021-12-17T06:20:53Z,42.805,6.029,13.3002,4.60041,2470.437,2021-12-17T08:22:21Z
2021-12-17T06:23:56Z,42.805,6.029,13.3012,4.60039,2470.46,2021-12-17T08:25:24Z
2021-12-17T06:26:59Z,42.805,6.029,13.3014,4.60049,2470.423,2021-12-17T08:28:27Z
2021-12-17T06:30:02Z,42.805,6.029,13.2998,4.60035,2470.45,2021-12-17T08:31:31Z
2021-12-17T06:33:05Z,42.805,6.029,13.2996,4.60036,2470.46,2021-12-17T08:34:34Z
2021-12-17T06:36:08Z,42.805,6.029,13.3004,4.60039,2470.45,2021-12-17T08:37:37Z
2021-12-17T06:39:11Z,42.805,6.029,13.2998,4.60032,2470.474,2021-12-17T08:40:40Z
2021-12-17T06:42:14Z,42.805,6.029,13.2998,4.60046,2470.437,2021-12-17T08:43:43Z
2021-12-17T06:45:18Z,42.805,6.029,13.3006,4.60029,2470.474,2021-12-17T08:46:46Z
2021-12-17T06:48:21Z,42.805,6.029,13.3002,4.60042,2470.45,2021-12-17T08:49:49Z
2021-12-17T06:51:24Z,42.805,6.029,13.2996,4.60036,2470.474,2021-12-17T08:52:52Z
2021-12-17T06:54:27Z,42.805,6.029,13.3002,4.60042,2470.474,2021-12-17T08:55:56Z
2021-12-17T06:57:30Z,42.805,6.029,13.2998,4.60037,2470.45,2021-12-17T08:58:59Z
2021-12-17T07:00:33Z,42.805,6.029,13.3002,4.60045,2470.45,2021-12-17T09:02:02Z
2021-12-17T07:03:36Z,42.805,6.029,13.3001,4.60032,2470.437,2021-12-17T09:05:05Z
2021-12-17T07:06:39Z,42.805,6.029,13.2998,4.60028,2470.45,2021-12-17T09:08:08Z
2021-12-17T07:09:43Z,42.805,6.029,13.2996,4.60026,2470.474,2021-12-17T09:11:11Z
2021-12-17T07:12:46Z,42.805,6.029,13.2999,4.60033,2470.437,2021-12-17T09:14:14Z
2021-12-17T07:15:49Z,42.805,6.029,13.3001,4.60044,2470.46,2021-12-17T09:17:17Z
2021-12-17T07:18:52Z,42.805,6.029,13.3005,4.60046,2470.413,2021-12-17T09:20:21Z
2021-12-17T07:21:55Z,42.805,6.029,13.2997,4.60032,2470.427,2021-12-17T09:23:24Z
2021-12-17T07:24:58Z,42.805,6.029,13.2998,4.60032,2470.437,2021-12-17T09:26:27Z
2021-12-17T07:28:01Z,42.805,6.029,13.3004,4.60035,2470.46,2021-12-17T09:29:30Z
2021-12-17T07:31:04Z,42.805,6.029,13.2996,4.60031,2470.474,2021-12-17T09:32:33Z
2021-12-17T07:34:08Z,42.805,6.029,13.2997,4.60041,2470.413,2021-12-17T09:35:36Z
2021-12-17T07:37:11Z,42.805,6.029,13.3000,4.60046,2470.437,2021-12-17T09:38:39Z
2021-12-17T07:40:14Z,42.805,6.029,13.2995,4.60032,2470.46,2021-12-17T09:41:42Z
2021-12-17T07:43:17Z,42.805,6.029,13.3003,4.60039,2470.474,2021-12-17T09:44:46Z
2021-12-17T07:46:20Z,42.805,6.029,13.3000,4.60044,2470.427,2021-12-17T09:47:49Z
2021-12-17T07:49:23Z,42.805,6.029,13.3000,4.60051,2470.413,2021-12-17T09:50:52Z
2021-12-17T07:52:26Z,42.805,6.029,13.2997,4.60029,2470.437,2021-12-17T09:53:55Z
2021-12-17T07:55:29Z,42.805,6.029,13.2998,4.60029,2470.413,2021-12-17T09:56:58Z
2021-12-17T07:58:33Z,42.805,6.029,13.3000,4.60042,2470.413,2021-12-17T10:00:01Z
2021-12-17T08:01:36Z,42.805,6.029,13.3006,4.60054,2470.437,2021-12-17T10:03:04Z
2021-12-17T08:04:39Z,42.805,6.029,13.2997,4.60033,2470.413,2021-12-17T10:06:07Z
2021-12-17T08:07:42Z,42.805,6.029,13.3000,4.60034,2470.427,2021-12-17T10:09:11Z
2021-12-17T08:10:45Z,42.805,6.029,13.3008,4.60044,2470.437,2021-12-17T10:12:14Z
2021-12-17T08:13:48Z,42.805,6.029,13.3012,4.60047,2470.437,2021-12-17T10:15:17Z
2021-12-17T08:16:51Z,42.805,6.029,13.3014,4.60069,2470.427,2021-12-17T10:18:20Z
2021-12-17T08:19:54Z,42.805,6.029,13.3002,4.60049,2470.404,2021-12-17T10:21:23Z
2021-12-17T08:22:58Z,42.805,6.029,13.3004,4.60039,2470.413,2021-12-17T10:24:26Z
2021-12-17T08:26:01Z,42.805,6.029,13.3006,4.60046,2470.404,2021-12-17T10:27:29Z
2021-12-17T08:29:04Z,42.805,6.029,13.3004,4.60058,2470.413,2021-12-17T10:30:32Z
2021-12-17T08:32:07Z,42.805,6.029,13.3023,4.60059,2470.39,2021-12-17T10:33:36Z
2021-12-17T08:35:10Z,42.805,6.029,13.3019,4.60044,2470.413,2021-12-17T10:36:39Z
2021-12-17T08:38:13Z,42.805,6.029,13.3004,4.60057,2470.427,2021-12-17T10:39:42Z
2021-12-17T08:41:16Z,42.805,6.029,13.3015,4.60041,2470.39,2021-12-17T10:42:45Z
2021-12-17T08:44:19Z,42.805,6.029,13.3019,4.60060,2470.427,2021-12-17T10:45:48Z
2021-12-17T08:47:23Z,42.805,6.029,13.3013,4.60057,2470.427,2021-12-17T10:48:51Z
2021-12-17T08:50:26Z,42.805,6.029,13.3009,4.60050,2470.427,2021-12-17T10:51:54Z
2021-12-17T08:53:29Z,42.805,6.029,13.3011,4.60043,2470.427,2021-12-17T10:54:57Z
2021-12-17T08:56:32Z,42.805,6.029,13.3005,4.60068,2470.39,2021-12-17T10:58:01Z
2021-12-17T08:59:35Z,42.805,6.029,13.3012,4.60051,2470.413,2021-12-17T11:01:04Z
2021-12-17T09:02:38Z,42.805,6.029,13.3011,4.60054,2470.413,2021-12-17T11:04:07Z
2021-12-17T09:05:41Z,42.805,6.029,13.3010,4.60057,2470.413,2021-12-17T11:07:10Z
2021-12-17T09:08:44Z,42.805,6.029,13.3005,4.60050,2470.404,2021-12-17T11:10:13Z
2021-12-17T09:11:48Z,42.805,6.029,13.3022,4.60041,2470.39,2021-12-17T11:13:16Z
2021-12-17T09:14:51Z,42.805,6.029,13.3011,4.60047,2470.404,2021-12-17T11:16:19Z
2021-12-17T09:17:54Z,42.805,6.029,13.3025,4.60051,2470.413,2021-12-17T11:19:23Z
2021-12-17T09:20:57Z,42.805,6.029,13.3017,4.60049,2470.39,2021-12-17T11:22:26Z
2021-12-17T09:24:00Z,42.805,6.029,13.3026,4.60071,2470.39,2021-12-17T11:25:29Z
2021-12-17T09:27:03Z,42.805,6.029,13.3046,4.60038,2470.366,2021-12-17T11:28:32Z
2021-12-17T09:30:06Z,42.805,6.029,13.3016,4.60045,2470.366,2021-12-17T11:31:35Z
2021-12-17T09:33:10Z,42.805,6.029,13.3020,4.60033,2470.366,2021-12-17T11:34:38Z
2021-12-17T09:36:13Z,42.805,6.029,13.3015,4.60046,2470.404,2021-12-17T11:37:41Z
2021-12-17T09:39:16Z,42.805,6.029,13.3016,4.60051,2470.413,2021-12-17T11:40:44Z
2021-12-17T09:42:19Z,42.805,6.029,13.3030,4.60049,2470.404,2021-12-17T11:43:48Z
2021-12-17T09:45:22Z,42.805,6.029,13.3019,4.60054,2470.38,2021-12-17T11:46:51Z
2021-12-17T09:48:25Z,42.805,6.029,13.3024,4.60049,2470.366,2021-12-17T11:49:54Z
2021-12-17T09:51:28Z,42.805,6.029,13.3013,4.60064,2470.404,2021-12-17T11:52:57Z
2021-12-17T09:54:31Z,42.805,6.029,13.3031,4.60047,2470.366,2021-12-17T11:56:00Z
2021-12-17T09:57:35Z,42.805,6.029,13.3017,4.60045,2470.39,2021-12-17T11:59:03Z
2021-12-17T10:00:38Z,42.805,6.029,13.3012,4.60042,2470.38,2021-12-17T12:02:06Z
2021-12-17T10:03:41Z,42.805,6.029,13.3029,4.60038,2470.366,2021-12-17T12:05:09Z
2021-12-17T10:06:44Z,42.805,6.029,13.3034,4.60091,2470.366,2021-12-17T12:08:13Z
2021-12-17T10:09:47Z,42.805,6.029,13.3023,4.60061,2470.427,2021-12-17T12:11:16Z
2021-12-17T10:12:50Z,42.805,6.029,13.3020,4.60053,2470.343,2021-12-17T12:14:19Z
2021-12-17T10:15:53Z,42.805,6.029,13.3011,4.60047,2470.404,2021-12-17T12:17:22Z
2021-12-17T10:18:56Z,42.805,6.029,13.3016,4.60040,2470.39,2021-12-17T12:20:25Z
2021-12-17T10:22:00Z,42.805,6.029,13.3011,4.60052,2470.366,2021-12-17T12:23:28Z
2021-12-17T10:25:03Z,42.805,6.029,13.3024,4.60046,2470.404,2021-12-17T12:26:31Z
2021-12-17T10:28:06Z,42.805,6.029,13.3012,4.60036,2470.357,2021-12-17T12:29:34Z
2021-12-17T10:31:09Z,42.805,6.029,13.3018,4.60042,2470.38,2021-12-17T12:32:38Z
2021-12-17T10:34:12Z,42.805,6.029,13.3014,4.60030,2470.39,2021-12-17T12:35:41Z
2021-12-17T10:37:15Z,42.805,6.029,13.3012,4.60035,2470.32,2021-12-17T12:38:44Z
2021-12-17T10:40:18Z,42.805,6.029,13.3018,4.60042,2470.38,2021-12-17T12:41:47Z
2021-12-17T10:43:22Z,42.805,6.029,13.3013,4.60039,2470.366,2021-12-17T12:44:50Z
2021-12-17T10:46:25Z,42.805,6.029,13.3019,4.60035,2470.357,2021-12-17T12:47:53Z
2021-12-17T10:49:28Z,42.805,6.029,13.3022,4.60035,2470.366,2021-12-17T12:50:56Z
2021-12-17T10:52:31Z,42.805,6.029,13.3012,4.60039,2470.343,2021-12-17T12:54:00Z
2021-12-17T10:55:34Z,42.805,6.029,13.3014,4.60038,2470.366,2021-12-17T12:57:03Z
2021-12-17T10:58:37Z,42.805,6.029,13.3013,4.60034,2470.343,2021-12-17T13:00:06Z
2021-12-17T11:01:40Z,42.805,6.029,13.3034,4.60037,2470.357,2021-12-17T13:03:09Z
2021-12-17T11:04:43Z,42.805,6.029,13.3015,4.60048,2470.32,2021-12-17T13:06:12Z
2021-12-17T11:07:47Z,42.805,6.029,13.3015,4.60039,2470.343,2021-12-17T13:09:15Z
2021-12-17T11:10:50Z,42.805,6.029,13.3021,4.60039,2470.366,2021-12-17T13:12:18Z
2021-12-17T11:13:53Z,42.805,6.029,13.3011,4.60036,2470.343,2021-12-17T13:15:21Z
2021-12-17T11:16:56Z,42.805,6.029,13.3010,4.60034,2470.366,2021-12-17T13:18:25Z
2021-12-17T11:19:59Z,42.805,6.029,13.3020,4.60040,2470.32,2021-12-17T13:21:28Z
2021-12-17T11:23:02Z,42.805,6.029,13.3014,4.60035,2470.343,2021-12-17T13:24:31Z
2021-12-17T11:26:05Z,42.805,6.029,13.3019,4.60038,2470.343,2021-12-17T13:27:34Z
2021-12-17T11:29:08Z,42.805,6.029,13.3014,4.60039,2470.334,2021-12-17T13:30:37Z
2021-12-17T11:32:12Z,42.805,6.029,13.3017,4.60033,2470.343,2021-12-17T13:33:40Z
2021-12-17T11:35:15Z,42.805,6.029,13.3016,4.60039,2470.343,2021-12-17T13:36:43Z
2021-12-17T11:38:18Z,42.805,6.029,13.3011,4.60034,2470.343,2021-12-17T13:39:46Z
2021-12-17T11:41:21Z,42.805,6.029,13.3012,4.60035,2470.357,2021-12-17T13:42:50Z
2021-12-17T11:44:24Z,42.805,6.029,13.3011,4.60033,2470.32,2021-12-17T13:45:53Z
2021-12-17T11:47:27Z,42.805,6.029,13.3016,4.60033,2470.32,2021-12-17T13:48:56Z
2021-12-17T11:50:30Z,42.805,6.029,13.3018,4.60033,2470.32,2021-12-17T13:51:59Z
2021-12-17T11:53:33Z,42.805,6.029,13.3015,4.60033,2470.357,2021-12-17T13:55:02Z
2021-12-17T11:56:37Z,42.805,6.029,13.3015,4.60034,2470.357,2021-12-17T13:58:05Z
2021-12-17T11:59:40Z,42.805,6.029,13.3016,4.60036,2470.297,2021-12-17T14:01:08Z
2021-12-17T12:02:43Z,42.805,6.029,13.3011,4.60031,2470.334,2021-12-17T14:04:11Z
2021-12-17T12:05:46Z,42.805,6.029,13.3014,4.60033,2470.334,2021-12-17T14:07:15Z
2021-12-17T12:08:49Z,42.805,6.029,13.3011,4.60032,2470.334,2021-12-17T14:10:18Z
2021-12-17T12:11:52Z,42.805,6.029,13.3015,4.60029,2470.31,2021-12-17T14:13:21Z
2021-12-17T12:14:55Z,42.805,6.029,13.3013,4.60048,2470.357,2021-12-17T14:16:24Z
2021-12-17T12:17:58Z,42.805,6.029,13.3015,4.60033,2470.31,2021-12-17T14:19:27Z
2021-12-17T12:21:02Z,42.805,6.029,13.3015,4.60033,2470.287,2021-12-17T14:22:30Z
2021-12-17T12:24:05Z,42.805,6.029,13.3009,4.60034,2470.297,2021-12-17T14:25:33Z
2021-12-17T12:27:08Z,42.805,6.029,13.3011,4.60032,2470.297,2021-12-17T14:28:36Z
2021-12-17T12:30:11Z,42.805,6.029,13.3009,4.60029,2470.357,2021-12-17T14:31:40Z
2021-12-17T12:33:14Z,42.805,6.029,13.3011,4.60033,2470.287,2021-12-17T14:34:43Z
2021-12-17T12:36:17Z,42.805,6.029,13.3013,4.60033,2470.31,2021-12-17T14:37:46Z
2021-12-17T12:39:20Z,42.805,6.029,13.3018,4.60036,2470.297,2021-12-17T14:40:49Z
2021-12-17T12:42:24Z,42.805,6.029,13.3013,4.60038,2470.297,2021-12-17T14:43:52Z
2021-12-17T12:45:27Z,42.805,6.029,13.3009,4.60037,2470.297,2021-12-17T14:46:55Z
2021-12-17T12:48:30Z,42.805,6.029,13.3013,4.60035,2470.297,2021-12-17T14:49:58Z
2021-12-17T12:51:33Z,42.805,6.029,13.3017,4.60031,2470.32,2021-12-17T14:53:02Z
2021-12-17T12:54:36Z,42.805,6.029,13.3013,4.60041,2470.287,2021-12-17T14:56:05Z
2021-12-17T12:57:39Z,42.805,6.029,13.3019,4.60032,2470.31,2021-12-17T14:59:08Z
2021-12-17T13:00:42Z,42.805,6.029,13.3013,4.60036,2470.32,2021-12-17T15:02:11Z
2021-12-17T13:03:45Z,42.805,6.029,13.3011,4.60039,2470.31,2021-12-17T15:05:14Z
2021-12-17T13:06:49Z,42.805,6.029,13.3015,4.60033,2470.297,2021-12-17T15:08:17Z
2021-12-17T13:09:52Z,42.805,6.029,13.3014,4.60033,2470.297,2021-12-17T15:11:20Z
2021-12-17T13:12:55Z,42.805,6.029,13.3009,4.60035,2470.264,2021-12-17T15:14:23Z
2021-12-17T13:15:58Z,42.805,6.029,13.3018,4.60035,2470.273,2021-12-17T15:17:27Z
2021-12-17T13:19:01Z,42.805,6.029,13.3011,4.60035,2470.273,2021-12-17T15:20:30Z
2021-12-17T13:22:04Z,42.805,6.029,13.3011,4.60035,2470.297,2021-12-17T15:23:33Z
2021-12-17T13:25:07Z,42.805,6.029,13.3011,4.60033,2470.264,2021-12-17T15:26:36Z
2021-12-17T13:28:10Z,42.805,6.029,13.3019,4.60049,2470.297,2021-12-17T15:29:39Z
2021-12-17T13:31:14Z,42.805,6.029,13.3016,4.60059,2470.287,2021-12-17T15:32:42Z
2021-12-17T13:34:17Z,42.805,6.029,13.3011,4.60039,2470.273,2021-12-17T15:35:45Z
2021-12-17T13:37:20Z,42.805,6.029,13.3015,4.60033,2470.25,2021-12-17T15:38:48Z
2021-12-17T13:40:23Z,42.805,6.029,13.3016,4.60033,2470.287,2021-12-17T15:41:52Z
2021-12-17T13:43:26Z,42.805,6.029,13.3008,4.60033,2470.297,2021-12-17T15:44:55Z
2021-12-17T13:46:29Z,42.805,6.029,13.3011,4.60035,2470.25,2021-12-17T15:47:58Z
2021-12-17T13:49:32Z,42.805,6.029,13.3010,4.60035,2470.334,2021-12-17T15:51:01Z
2021-12-17T13:52:35Z,42.805,6.029,13.3013,4.60035,2470.297,2021-12-17T15:54:04Z
2021-12-17T13:55:39Z,42.805,6.029,13.3006,4.60033,2470.31,2021-12-17T15:57:07Z
2021-12-17T13:58:42Z,42.805,6.029,13.3013,4.60037,2470.297,2021-12-17T16:00:10Z
2021-12-17T14:01:45Z,42.805,6.029,13.3014,4.60034,2470.31,2021-12-17T16:03:13Z
2021-12-17T14:04:48Z,42.805,6.029,13.3012,4.60031,2470.297,2021-12-17T16:06:17Z
2021-12-17T14:07:51Z,42.805,6.029,13.3012,4.60032,2470.287,2021-12-17T16:09:20Z
2021-12-17T14:10:54Z,42.805,6.029,13.3015,4.60034,2470.287,2021-12-17T16:12:23Z
2021-12-17T14:13:57Z,42.805,6.029,13.3015,4.60034,2470.31,2021-12-17T16:15:26Z
2021-12-17T14:17:00Z,42.805,6.029,13.3012,4.60033,2470.273,2021-12-17T16:18:29Z
2021-12-17T14:20:04Z,42.805,6.029,13.3018,4.60033,2470.31,2021-12-17T16:21:32Z
2021-12-17T14:23:07Z,42.805,6.029,13.3015,4.60032,2470.31,2021-12-17T16:24:35Z
2021-12-17T14:26:10Z,42.805,6.029,13.3011,4.60036,2470.287,2021-12-17T16:27:38Z
2021-12-17T14:29:13Z,42.805,6.029,13.3011,4.60035,2470.297,2021-12-17T16:30:42Z
2021-12-17T14:32:16Z,42.805,6.029,13.3012,4.60033,2470.297,2021-12-17T16:33:45Z
2021-12-17T14:35:19Z,42.805,6.029,13.3015,4.60033,2470.297,2021-12-17T16:36:48Z
2021-12-17T14:38:22Z,42.805,6.029,13.3010,4.60034,2470.31,2021-12-17T16:39:51Z
2021-12-17T14:41:26Z,42.805,6.029,13.3014,4.60031,2470.334,2021-12-17T16:42:54Z
2021-12-17T14:44:29Z,42.805,6.029,13.3005,4.60033,2470.32,2021-12-17T16:45:57Z
2021-12-17T14:47:32Z,42.805,6.029,13.3010,4.60033,2470.334,2021-12-17T16:49:00Z
2021-12-17T14:50:35Z,42.805,6.029,13.3009,4.60033,2470.357,2021-12-17T16:52:03Z
2021-12-17T14:53:38Z,42.805,6.029,13.3006,4.60036,2470.334,2021-12-17T16:55:07Z
2021-12-17T14:56:41Z,42.805,6.029,13.3011,4.60029,2470.31,2021-12-17T16:58:10Z
2021-12-17T14:59:44Z,42.805,6.029,13.3017,4.60037,2470.32,2021-12-17T17:01:13Z
2021-12-17T15:02:47Z,42.805,6.029,13.3016,4.60049,2470.334,2021-12-17T17:04:16Z